AUL510 UWGG-ULLI

Flight info

Callsign AUL510
Flight time 1h 29m
Altitude 38000
Route LARNO T784 ROKUR P164 PINOK N50 GENPA
Aircraft B738/M-SDE2E3FGHIRWXY/LB1

Departure

Time 2026-04-26 06:20
Airport Nizhny Novgorod / Strigino International Airport (UWGG)

Arrival

Time 2026-04-26 07:50
Airport Pulkovo Airport (ULLI)
Time Latitude Longitude Altitude Speed Heading
2026-04-26 05:55 56.21982 43.78859 265 ft 0 kts 101°
2026-04-26 06:10 56.21984 43.78833 265 ft 4 kts 100°
2026-04-26 06:10 56.21989 43.78786 265 ft 4 kts 97°
2026-04-26 06:10 56.21990 43.78751 265 ft 2 kts 78°
2026-04-26 06:10 56.21986 43.78732 265 ft 2 kts 40°
2026-04-26 06:11 56.21976 43.78722 265 ft 2 kts 15°
2026-04-26 06:11 56.21965 43.78717 265 ft 2 kts
2026-04-26 06:11 56.21960 43.78715 265 ft 0 kts
2026-04-26 06:13 56.21964 43.78717 265 ft 2 kts
2026-04-26 06:13 56.21994 43.78727 265 ft 8 kts 11°
2026-04-26 06:13 56.22065 43.78750 265 ft 11 kts
2026-04-26 06:13 56.22141 43.78710 265 ft 12 kts
2026-04-26 06:14 56.22212 43.78734 265 ft 10 kts 12°
2026-04-26 06:14 56.22277 43.78757 265 ft 10 kts 11°
2026-04-26 06:14 56.22355 43.78786 265 ft 13 kts 11°
2026-04-26 06:14 56.22444 43.78832 265 ft 14 kts 24°
2026-04-26 06:15 56.22545 43.78881 265 ft 16 kts 11°
2026-04-26 06:15 56.22657 43.78921 265 ft 17 kts 11°
2026-04-26 06:15 56.22776 43.78964 265 ft 18 kts 11°
2026-04-26 06:15 56.22901 43.79011 265 ft 19 kts 12°
2026-04-26 06:16 56.23032 43.79059 265 ft 20 kts 11°
2026-04-26 06:16 56.23157 43.79105 265 ft 18 kts 11°
2026-04-26 06:16 56.23276 43.79149 265 ft 17 kts 11°
2026-04-26 06:16 56.23387 43.79189 265 ft 16 kts 12°
2026-04-26 06:17 56.23494 43.79229 265 ft 15 kts
2026-04-26 06:17 56.23598 43.79240 265 ft 15 kts
2026-04-26 06:17 56.23702 43.79248 265 ft 16 kts
2026-04-26 06:17 56.23815 43.79256 265 ft 17 kts
2026-04-26 06:18 56.23919 43.79265 265 ft 15 kts
2026-04-26 06:18 56.24016 43.79268 265 ft 13 kts 352°
2026-04-26 06:18 56.24079 43.79198 265 ft 11 kts 306°
2026-04-26 06:18 56.24114 43.79090 266 ft 10 kts 298°
2026-04-26 06:19 56.24099 43.78994 267 ft 9 kts 211°
2026-04-26 06:19 56.24036 43.78963 266 ft 10 kts 191°
2026-04-26 06:19 56.24003 43.78951 266 ft 0 kts 191°
2026-04-26 06:19 56.24001 43.78950 266 ft 4 kts 191°
2026-04-26 06:20 56.23716 43.78846 264 ft 81 kts 192°
2026-04-26 06:20 56.22935 43.78571 284 ft 143 kts 188°
2026-04-26 06:20 56.21911 43.78205 846 ft 153 kts 191°
2026-04-26 06:20 56.20901 43.77792 1921 ft 143 kts 194°
2026-04-26 06:21 56.19991 43.77194 2887 ft 145 kts 205°
2026-04-26 06:21 56.18987 43.76293 3218 ft 177 kts 206°
2026-04-26 06:21 56.17826 43.75239 3394 ft 202 kts 206°
2026-04-26 06:21 56.16511 43.74071 3755 ft 222 kts 206°
2026-04-26 06:22 56.15057 43.72808 4237 ft 238 kts 206°
2026-04-26 06:22 56.13551 43.71516 5166 ft 240 kts 206°
2026-04-26 06:22 56.12035 43.70232 6070 ft 244 kts 206°
2026-04-26 06:22 56.10478 43.68925 6857 ft 250 kts 206°
2026-04-26 06:23 56.08889 43.67602 7688 ft 254 kts 206°
2026-04-26 06:23 56.07270 43.66263 8503 ft 259 kts 206°
2026-04-26 06:23 56.05620 43.64903 9327 ft 264 kts 206°
2026-04-26 06:23 56.03935 43.63515 10025 ft 273 kts 207°
2026-04-26 06:24 56.02169 43.61918 10207 ft 297 kts 216°
2026-04-26 06:24 56.00638 43.59280 10465 ft 316 kts 229°
2026-04-26 06:24 55.99180 43.56260 11059 ft 324 kts 230°
2026-04-26 06:24 55.97705 43.53176 11820 ft 328 kts 230°
2026-04-26 06:25 55.96214 43.50066 12621 ft 332 kts 230°
2026-04-26 06:25 55.94696 43.46925 13410 ft 337 kts 230°
2026-04-26 06:25 55.93151 43.43748 14136 ft 340 kts 230°
2026-04-26 06:25 55.91613 43.40598 14936 ft 342 kts 231°
2026-04-26 06:26 55.90042 43.37392 15728 ft 344 kts 231°
2026-04-26 06:26 55.88458 43.34164 16505 ft 347 kts 231°
2026-04-26 06:26 55.86860 43.30911 17262 ft 351 kts 231°
2026-04-26 06:26 55.85242 43.27625 17988 ft 354 kts 231°
2026-04-26 06:27 55.83611 43.24313 18663 ft 356 kts 232°
2026-04-26 06:27 55.82313 43.20584 19309 ft 356 kts 249°
2026-04-26 06:27 55.81760 43.16304 19987 ft 357 kts 265°
2026-04-26 06:27 55.81922 43.11882 20652 ft 362 kts 279°
2026-04-26 06:28 55.82770 43.07633 21249 ft 372 kts 295°
2026-04-26 06:28 55.84180 43.03731 21876 ft 377 kts 300°
2026-04-26 06:28 55.85704 42.99900 22468 ft 381 kts 301°
2026-04-26 06:28 55.87262 42.96068 23108 ft 382 kts 301°
2026-04-26 06:29 55.88821 42.92217 23648 ft 384 kts 301°
2026-04-26 06:29 55.90375 42.88333 24161 ft 386 kts 300°
2026-04-26 06:29 55.91907 42.84465 24643 ft 387 kts 300°
2026-04-26 06:29 55.93455 42.80525 25135 ft 389 kts 300°
2026-04-26 06:30 55.95009 42.76550 25619 ft 391 kts 299°
2026-04-26 06:30 55.96564 42.72564 26082 ft 393 kts 299°
2026-04-26 06:30 55.98130 42.68539 26533 ft 395 kts 299°
2026-04-26 06:30 55.99700 42.64497 26979 ft 397 kts 299°
2026-04-26 06:31 56.01280 42.60427 27414 ft 399 kts 298°
2026-04-26 06:31 56.02862 42.56346 27842 ft 401 kts 298°
2026-04-26 06:31 56.04447 42.52233 28252 ft 402 kts 298°
2026-04-26 06:31 56.05999 42.48068 28659 ft 403 kts 297°
2026-04-26 06:32 56.07537 42.43853 29053 ft 405 kts 296°
2026-04-26 06:32 56.09076 42.39610 29434 ft 407 kts 296°
2026-04-26 06:32 56.10623 42.35348 29768 ft 409 kts 296°
2026-04-26 06:32 56.12179 42.31069 30060 ft 411 kts 297°
2026-04-26 06:33 56.13745 42.26765 30367 ft 412 kts 297°
2026-04-26 06:33 56.15312 42.22457 30737 ft 412 kts 297°
2026-04-26 06:33 56.16876 42.18154 31138 ft 411 kts 297°
2026-04-26 06:33 56.18415 42.13909 31492 ft 411 kts 297°
2026-04-26 06:34 56.20005 42.09632 31817 ft 413 kts 299°
2026-04-26 06:34 56.21719 42.05473 32184 ft 414 kts 301°
2026-04-26 06:34 56.23486 42.01368 32551 ft 414 kts 302°
2026-04-26 06:34 56.25260 41.97294 32890 ft 414 kts 302°
2026-04-26 06:35 56.27036 41.93206 33217 ft 414 kts 302°
2026-04-26 06:35 56.28802 41.89116 33567 ft 414 kts 302°
2026-04-26 06:35 56.30562 41.85009 33819 ft 415 kts 302°
2026-04-26 06:35 56.32323 41.80875 33993 ft 417 kts 302°
2026-04-26 06:36 56.34091 41.76710 34188 ft 419 kts 302°
2026-04-26 06:36 56.35863 41.72522 34427 ft 420 kts 302°
2026-04-26 06:36 56.37636 41.68325 34638 ft 421 kts 302°
2026-04-26 06:36 56.39390 41.64165 34834 ft 423 kts 302°
2026-04-26 06:37 56.41171 41.59935 35040 ft 424 kts 302°
2026-04-26 06:37 56.42959 41.55683 35252 ft 425 kts 302°
2026-04-26 06:37 56.44748 41.51418 35443 ft 427 kts 302°
2026-04-26 06:37 56.46545 41.47129 35647 ft 428 kts 302°
2026-04-26 06:38 56.48346 41.42822 35839 ft 430 kts 302°
2026-04-26 06:38 56.50151 41.38498 36032 ft 431 kts 302°
2026-04-26 06:38 56.51960 41.34156 36218 ft 432 kts 302°
2026-04-26 06:38 56.53770 41.29803 36414 ft 434 kts 302°
2026-04-26 06:39 56.55588 41.25425 36589 ft 435 kts 302°
2026-04-26 06:39 56.57409 41.21034 36752 ft 437 kts 303°
2026-04-26 06:39 56.59233 41.16625 36945 ft 438 kts 303°
2026-04-26 06:39 56.60979 41.12114 37134 ft 436 kts 297°
2026-04-26 06:40 56.62373 41.07236 37309 ft 433 kts 289°
2026-04-26 06:40 56.63348 41.02090 37466 ft 431 kts 284°
2026-04-26 06:40 56.64232 40.96860 37479 ft 435 kts 284°
2026-04-26 06:41 56.65969 40.86406 37484 ft 434 kts 284°
2026-04-26 06:41 56.67739 40.75895 37481 ft 431 kts 284°
2026-04-26 06:42 56.69501 40.65509 37479 ft 429 kts 284°
2026-04-26 06:42 56.71241 40.55221 37470 ft 427 kts 284°
2026-04-26 06:43 56.72980 40.44880 37471 ft 427 kts 284°
2026-04-26 06:43 56.74711 40.34517 37470 ft 428 kts 284°
2026-04-26 06:44 56.76436 40.24126 37464 ft 429 kts 284°
2026-04-26 06:44 56.78161 40.13679 37460 ft 431 kts 284°
2026-04-26 06:45 56.79885 40.03176 37456 ft 433 kts 283°
2026-04-26 06:45 56.81607 39.92627 37448 ft 435 kts 283°
2026-04-26 06:46 56.83333 39.82021 37443 ft 436 kts 283°
2026-04-26 06:46 56.85060 39.71381 37433 ft 437 kts 283°
2026-04-26 06:47 56.86785 39.60700 37423 ft 438 kts 283°
2026-04-26 06:47 56.88489 39.50072 37428 ft 439 kts 283°
2026-04-26 06:48 56.90197 39.39359 37415 ft 438 kts 283°
2026-04-26 06:48 56.91890 39.28665 37413 ft 438 kts 283°
2026-04-26 06:49 56.93574 39.17962 37413 ft 437 kts 283°
2026-04-26 06:49 56.95245 39.07274 37404 ft 436 kts 283°
2026-04-26 06:50 56.96906 38.96580 37398 ft 435 kts 283°
2026-04-26 06:50 56.98554 38.85905 37403 ft 435 kts 283°
2026-04-26 06:51 57.00181 38.75297 37394 ft 435 kts 282°
2026-04-26 06:51 57.02626 38.59226 37392 ft 436 kts 282°
2026-04-26 06:52 57.04248 38.48475 37383 ft 437 kts 282°
2026-04-26 06:52 57.05862 38.37711 37384 ft 437 kts 282°
2026-04-26 06:53 57.07469 38.26922 37380 ft 438 kts 282°
2026-04-26 06:53 57.09068 38.16111 37373 ft 439 kts 282°
2026-04-26 06:54 57.10664 38.05250 37360 ft 440 kts 282°
2026-04-26 06:54 57.12254 37.94359 37360 ft 441 kts 282°
2026-04-26 06:55 57.13834 37.83459 37370 ft 441 kts 282°
2026-04-26 06:55 57.15399 37.72604 37359 ft 442 kts 282°
2026-04-26 06:56 57.17075 37.61690 37350 ft 446 kts 287°
2026-04-26 06:56 57.19350 37.51034 37350 ft 447 kts 289°
2026-04-26 06:57 57.21678 37.40381 37349 ft 447 kts 288°
2026-04-26 06:57 57.23976 37.29698 37357 ft 448 kts 288°
2026-04-26 06:58 57.26250 37.18967 37353 ft 449 kts 288°
2026-04-26 06:58 57.28513 37.08202 37360 ft 451 kts 288°
2026-04-26 06:59 57.30764 36.97439 37360 ft 453 kts 288°
2026-04-26 06:59 57.33028 36.86560 37361 ft 453 kts 288°
2026-04-26 07:00 57.35283 36.75669 37351 ft 453 kts 288°
2026-04-26 07:00 57.37523 36.64795 37355 ft 451 kts 288°
2026-04-26 07:01 57.39372 36.55769 37359 ft 450 kts 288°
2026-04-26 07:01 57.41580 36.44936 37365 ft 448 kts 288°
2026-04-26 07:02 57.43776 36.34108 37362 ft 448 kts 288°
2026-04-26 07:02 57.45961 36.23272 37366 ft 447 kts 288°
2026-04-26 07:03 57.48135 36.12440 37365 ft 447 kts 288°
2026-04-26 07:03 57.50308 36.01596 37377 ft 447 kts 288°
2026-04-26 07:04 57.52489 35.90758 37376 ft 448 kts 288°
2026-04-26 07:04 57.54664 35.79886 37376 ft 448 kts 288°
2026-04-26 07:05 57.56829 35.68997 37379 ft 449 kts 287°
2026-04-26 07:05 57.58974 35.58146 37384 ft 449 kts 287°
2026-04-26 07:06 57.61155 35.47133 37384 ft 450 kts 288°
2026-04-26 07:06 57.63380 35.36288 37383 ft 451 kts 288°
2026-04-26 07:07 57.65625 35.25341 37382 ft 452 kts 288°
2026-04-26 07:07 57.67853 35.14353 37384 ft 452 kts 288°
2026-04-26 07:08 57.70072 35.03343 37390 ft 453 kts 289°
2026-04-26 07:08 57.73143 34.93011 37388 ft 459 kts 306°
2026-04-26 07:09 57.77362 34.83976 37383 ft 461 kts 309°
2026-04-26 07:09 57.81651 34.75023 37389 ft 461 kts 309°
2026-04-26 07:11 57.92211 34.52358 37377 ft 460 kts 308°
2026-04-26 07:11 57.96400 34.43264 37383 ft 459 kts 308°
2026-04-26 07:12 58.00578 34.34164 37374 ft 459 kts 308°
2026-04-26 07:12 58.04717 34.25118 37378 ft 458 kts 308°
2026-04-26 07:13 58.08872 34.16007 37373 ft 457 kts 308°
2026-04-26 07:13 58.13020 34.06886 37374 ft 457 kts 308°
2026-04-26 07:14 58.17155 33.97754 37360 ft 456 kts 308°
2026-04-26 07:14 58.19235 33.93145 36840 ft 463 kts 308°
2026-04-26 07:14 58.21321 33.88516 36296 ft 460 kts 308°
2026-04-26 07:14 58.23399 33.83898 35687 ft 460 kts 308°
2026-04-26 07:15 58.25469 33.79285 35072 ft 460 kts 308°
2026-04-26 07:15 58.27550 33.74640 34362 ft 462 kts 308°
2026-04-26 07:15 58.29635 33.69975 33732 ft 463 kts 307°
2026-04-26 07:15 58.31710 33.65326 33203 ft 460 kts 307°
2026-04-26 07:16 58.33768 33.60706 32657 ft 456 kts 307°
2026-04-26 07:16 58.35811 33.56112 32137 ft 452 kts 307°
2026-04-26 07:16 58.37802 33.51625 31653 ft 447 kts 307°
2026-04-26 07:16 58.39824 33.47056 31166 ft 443 kts 307°
2026-04-26 07:17 58.41775 33.42642 30702 ft 439 kts 306°
2026-04-26 07:17 58.43732 33.38204 30235 ft 436 kts 306°
2026-04-26 07:17 58.45674 33.33790 29769 ft 432 kts 306°
2026-04-26 07:17 58.47601 33.29400 29254 ft 430 kts 306°
2026-04-26 07:18 58.49511 33.25045 28711 ft 426 kts 306°
2026-04-26 07:18 58.51404 33.20723 28221 ft 420 kts 305°
2026-04-26 07:18 58.53267 33.16462 27739 ft 415 kts 305°
2026-04-26 07:18 58.55116 33.12220 27053 ft 415 kts 305°
2026-04-26 07:19 58.56959 33.07986 26567 ft 411 kts 304°
2026-04-26 07:19 58.58776 33.03804 26084 ft 406 kts 304°
2026-04-26 07:19 58.60575 32.99657 25611 ft 402 kts 304°
2026-04-26 07:19 58.62352 32.95555 25165 ft 398 kts 304°
2026-04-26 07:20 58.64107 32.91492 24722 ft 394 kts 304°
2026-04-26 07:20 58.65846 32.87460 24283 ft 390 kts 304°
2026-04-26 07:20 58.67567 32.83462 23848 ft 386 kts 304°
2026-04-26 07:20 58.69271 32.79498 23411 ft 383 kts 304°
2026-04-26 07:21 58.70956 32.75569 22983 ft 380 kts 304°
2026-04-26 07:21 58.72629 32.71662 22468 ft 376 kts 304°
2026-04-26 07:21 58.74283 32.67793 22002 ft 372 kts 305°
2026-04-26 07:21 58.75917 32.63965 21582 ft 367 kts 305°
2026-04-26 07:22 58.77530 32.60180 21159 ft 363 kts 305°
2026-04-26 07:22 58.79103 32.56485 20738 ft 359 kts 305°
2026-04-26 07:22 58.80679 32.52774 20326 ft 356 kts 305°
2026-04-26 07:22 58.82241 32.49092 19899 ft 353 kts 306°
2026-04-26 07:23 58.83788 32.45439 19500 ft 350 kts 306°
2026-04-26 07:23 58.85322 32.41810 19084 ft 347 kts 306°
2026-04-26 07:23 58.86838 32.38217 18690 ft 344 kts 306°
2026-04-26 07:23 58.88345 32.34643 18293 ft 342 kts 306°
2026-04-26 07:24 58.89838 32.31096 17901 ft 339 kts 306°
2026-04-26 07:24 58.91325 32.27560 17494 ft 337 kts 306°
2026-04-26 07:24 58.92798 32.24047 17061 ft 335 kts 306°
2026-04-26 07:24 58.94257 32.20564 16675 ft 331 kts 306°
2026-04-26 07:25 58.95703 32.17110 16278 ft 328 kts 306°
2026-04-26 07:25 58.97133 32.13686 15892 ft 325 kts 306°
2026-04-26 07:25 58.98533 32.10331 15527 ft 322 kts 306°
2026-04-26 07:25 58.99934 32.06965 15137 ft 320 kts 307°
2026-04-26 07:26 59.01326 32.03615 14764 ft 318 kts 307°
2026-04-26 07:26 59.02710 32.00283 14388 ft 316 kts 307°
2026-04-26 07:26 59.04083 31.96975 14019 ft 314 kts 307°
2026-04-26 07:26 59.05448 31.93681 13651 ft 312 kts 307°
2026-04-26 07:27 59.06806 31.90400 13285 ft 311 kts 307°
2026-04-26 07:27 59.08156 31.87134 12896 ft 309 kts 307°
2026-04-26 07:27 59.09501 31.83876 12519 ft 307 kts 307°
2026-04-26 07:27 59.10840 31.80679 12165 ft 304 kts 310°
2026-04-26 07:28 59.12292 31.77759 11925 ft 298 kts 315°
2026-04-26 07:28 59.13783 31.74989 11578 ft 295 kts 315°
2026-04-26 07:28 59.15276 31.72242 11210 ft 294 kts 315°
2026-04-26 07:28 59.16751 31.69508 10861 ft 292 kts 315°
2026-04-26 07:29 59.18212 31.66772 10511 ft 290 kts 315°
2026-04-26 07:29 59.19662 31.64037 10148 ft 289 kts 315°
2026-04-26 07:29 59.21100 31.61313 9813 ft 287 kts 315°
2026-04-26 07:29 59.22517 31.58621 9620 ft 280 kts 315°
2026-04-26 07:30 59.23889 31.56009 9504 ft 271 kts 315°
2026-04-26 07:30 59.25217 31.53476 9378 ft 263 kts 314°
2026-04-26 07:30 59.26504 31.51017 9269 ft 255 kts 314°
2026-04-26 07:30 59.27747 31.48635 8993 ft 253 kts 314°
2026-04-26 07:31 59.29001 31.46231 8713 ft 251 kts 314°
2026-04-26 07:31 59.30244 31.43845 8437 ft 249 kts 314°
2026-04-26 07:31 59.31478 31.41474 8174 ft 247 kts 313°
2026-04-26 07:31 59.32705 31.39114 7905 ft 249 kts 314°
2026-04-26 07:32 59.33947 31.36718 7648 ft 253 kts 314°
2026-04-26 07:32 59.35219 31.34267 7370 ft 257 kts 314°
2026-04-26 07:32 59.36489 31.31815 7069 ft 256 kts 313°
2026-04-26 07:32 59.37753 31.29374 6806 ft 254 kts 313°
2026-04-26 07:33 59.39009 31.26943 6542 ft 253 kts 313°
2026-04-26 07:33 59.40259 31.24521 6256 ft 253 kts 313°
2026-04-26 07:33 59.41505 31.22104 5983 ft 251 kts 313°
2026-04-26 07:33 59.42746 31.19696 5718 ft 250 kts 313°
2026-04-26 07:34 59.43983 31.17292 5428 ft 250 kts 313°
2026-04-26 07:34 59.45219 31.14887 5144 ft 250 kts 313°
2026-04-26 07:34 59.46440 31.12513 4864 ft 250 kts 313°
2026-04-26 07:34 59.47670 31.10115 4593 ft 248 kts 313°
2026-04-26 07:35 59.48878 31.07760 4492 ft 241 kts 313°
2026-04-26 07:35 59.50056 31.05462 4377 ft 237 kts 313°
2026-04-26 07:35 59.51259 31.03299 4268 ft 234 kts 325°
2026-04-26 07:35 59.52793 31.02313 4271 ft 235 kts 352°
2026-04-26 07:36 59.54428 31.02279 4267 ft 235 kts 359°
2026-04-26 07:36 59.56061 31.02415 4262 ft 234 kts 360°
2026-04-26 07:36 59.57689 31.02551 4268 ft 234 kts 359°
2026-04-26 07:36 59.59313 31.02839 4233 ft 237 kts 14°
2026-04-26 07:37 59.60793 31.04264 4275 ft 237 kts 26°
2026-04-26 07:37 59.62244 31.05820 4260 ft 238 kts 26°
2026-04-26 07:37 59.63702 31.07363 4259 ft 238 kts 26°
2026-04-26 07:37 59.65166 31.08908 4259 ft 239 kts 25°
2026-04-26 07:38 59.66633 31.10451 4257 ft 239 kts 24°
2026-04-26 07:38 59.68198 31.11423 4263 ft 235 kts
2026-04-26 07:38 59.69823 31.11745 4254 ft 235 kts
2026-04-26 07:38 59.71453 31.12011 4256 ft 235 kts
2026-04-26 07:39 59.73086 31.12305 4251 ft 235 kts
2026-04-26 07:39 59.74711 31.12620 4248 ft 235 kts
2026-04-26 07:39 59.76336 31.12770 4224 ft 231 kts 348°
2026-04-26 07:39 59.77866 31.11971 4257 ft 227 kts 340°
2026-04-26 07:40 59.79376 31.11059 4257 ft 227 kts 340°
2026-04-26 07:40 59.80879 31.10090 4249 ft 226 kts 332°
2026-04-26 07:40 59.82024 31.08060 4257 ft 221 kts 299°
2026-04-26 07:40 59.82447 31.05213 4204 ft 222 kts 270°
2026-04-26 07:41 59.82086 31.02232 4078 ft 227 kts 243°
2026-04-26 07:41 59.81149 30.99682 3987 ft 230 kts 231°
2026-04-26 07:41 59.80081 30.97320 3850 ft 228 kts 230°
2026-04-26 07:41 59.79011 30.95013 3730 ft 227 kts 230°
2026-04-26 07:42 59.77952 30.92723 3581 ft 223 kts 230°
2026-04-26 07:42 59.76915 30.90470 3485 ft 219 kts 230°
2026-04-26 07:42 59.75892 30.88237 3365 ft 218 kts 230°
2026-04-26 07:42 59.74874 30.86003 3168 ft 220 kts 230°
2026-04-26 07:43 59.73844 30.83736 2914 ft 222 kts 230°
2026-04-26 07:43 59.72807 30.81454 2654 ft 222 kts 230°
2026-04-26 07:43 59.71776 30.79190 2548 ft 220 kts 230°
2026-04-26 07:43 59.70763 30.76965 2515 ft 215 kts 230°
2026-04-26 07:44 59.69768 30.74783 2508 ft 213 kts 230°
2026-04-26 07:44 59.68775 30.72606 2510 ft 212 kts 230°
2026-04-26 07:44 59.68025 30.70158 2502 ft 208 kts 258°
2026-04-26 07:44 59.68075 30.67324 2508 ft 211 kts 288°
2026-04-26 07:45 59.68865 30.64875 2520 ft 218 kts 315°
2026-04-26 07:45 59.70073 30.63020 2513 ft 221 kts 322°
2026-04-26 07:45 59.71314 30.61324 2502 ft 215 kts 323°
2026-04-26 07:45 59.72515 30.59686 2490 ft 204 kts 323°
2026-04-26 07:46 59.73651 30.58122 2496 ft 194 kts 323°
2026-04-26 07:46 59.74701 30.56533 2491 ft 188 kts 308°
2026-04-26 07:46 59.75191 30.54099 2401 ft 192 kts 284°
2026-04-26 07:46 59.75551 30.51535 2265 ft 199 kts 286°
2026-04-26 07:47 59.75948 30.48877 2126 ft 200 kts 287°
2026-04-26 07:47 59.76339 30.46270 1928 ft 195 kts 287°
2026-04-26 07:47 59.76721 30.43734 1673 ft 189 kts 288°
2026-04-26 07:47 59.77092 30.41273 1430 ft 183 kts 288°
2026-04-26 07:48 59.77451 30.38885 1156 ft 177 kts 288°
2026-04-26 07:48 59.77792 30.36611 948 ft 164 kts 288°
2026-04-26 07:48 59.78096 30.34576 752 ft 145 kts 287°
2026-04-26 07:48 59.78363 30.32786 582 ft 132 kts 287°
2026-04-26 07:49 59.78626 30.31019 419 ft 135 kts 287°
2026-04-26 07:49 59.78891 30.29241 238 ft 133 kts 287°
2026-04-26 07:49 59.79146 30.27511 118 ft 128 kts 287°
2026-04-26 07:50 59.79529 30.24935 86 ft 84 kts 287°
2026-04-26 07:50 59.79641 30.24172 87 ft 35 kts 287°
2026-04-26 07:50 59.79700 30.23784 84 ft 28 kts 286°
2026-04-26 07:50 59.79743 30.23497 84 ft 16 kts 289°
2026-04-26 07:51 59.79793 30.23309 82 ft 15 kts 304°
2026-04-26 07:51 59.79855 30.23156 83 ft 10 kts 315°
2026-04-26 07:51 59.79900 30.23067 82 ft 7 kts 314°
2026-04-26 07:51 59.79937 30.23021 79 ft 6 kts 357°
2026-04-26 07:52 59.79968 30.23078 70 ft 6 kts 66°
2026-04-26 07:52 59.79970 30.23163 71 ft 6 kts 102°
2026-04-26 07:52 59.79959 30.23245 79 ft 6 kts 105°
2026-04-26 07:52 59.79948 30.23325 79 ft 6 kts 106°
2026-04-26 07:53 59.79936 30.23403 74 ft 6 kts 107°
2026-04-26 07:53 59.79924 30.23480 78 ft 6 kts 107°
2026-04-26 07:53 59.79912 30.23556 72 ft 6 kts 107°
2026-04-26 07:53 59.79900 30.23641 72 ft 7 kts 106°
2026-04-26 07:54 59.79885 30.23741 84 ft 8 kts 107°
2026-04-26 07:54 59.79868 30.23860 85 ft 10 kts 106°
2026-04-26 07:54 59.79847 30.23999 80 ft 11 kts 106°
2026-04-26 07:54 59.79824 30.24156 85 ft 13 kts 106°
2026-04-26 07:55 59.79797 30.24332 82 ft 14 kts 106°
2026-04-26 07:55 59.79768 30.24525 86 ft 15 kts 107°
2026-04-26 07:55 59.79737 30.24733 84 ft 16 kts 106°
2026-04-26 07:55 59.79705 30.24954 82 ft 17 kts 106°
2026-04-26 07:56 59.79671 30.25186 82 ft 18 kts 106°
2026-04-26 07:56 59.79637 30.25419 83 ft 17 kts 105°
2026-04-26 07:56 59.79604 30.25643 84 ft 17 kts 107°
2026-04-26 07:56 59.79575 30.25836 85 ft 14 kts 107°
2026-04-26 07:57 59.79549 30.26009 85 ft 13 kts 107°
2026-04-26 07:57 59.79526 30.26163 85 ft 11 kts 106°
2026-04-26 07:57 59.79507 30.26298 84 ft 7 kts 106°
2026-04-26 07:57 59.79531 30.26368 82 ft 8 kts 22°
2026-04-26 07:58 59.79583 30.26399 87 ft 7 kts 16°
2026-04-26 07:58 59.79624 30.26426 81 ft 6 kts 28°
2026-04-26 07:58 59.79633 30.26497 82 ft 6 kts 92°
2026-04-26 07:58 59.79630 30.26570 81 ft 4 kts 94°
2026-04-26 07:59 59.79629 30.26590 81 ft 0 kts 94°